{"data":{"norad_id":63890,"epoch":"2026-09-19T02:06:38.907648Z","epoch_age_seconds":269003,"freshness":"STALE","line1":"1 63890U 25095A   26262.08795032  .00013925  00000+0  51454-3 0  9990","line2":"2 63890  42.9968 164.1733 0001287 268.8412  91.2293 15.27583116 77368","mean_motion":15.27583116,"eccentricity":0.0001287,"inclination_deg":42.9968,"raan_deg":164.1733,"arg_perigee_deg":268.8412,"mean_anomaly_deg":91.2293,"bstar":0.00051454,"rev_number":7736,"period_min":94.266556426119,"perigee_km":482.1567321808,"apogee_km":483.92279908028,"semimajor_km":6861.1767656305,"source":"CELESTRAK","updated_at":"2026-09-21T09:00:35.142528Z"}}